Wind_Speed
35 34 35 35 35 37 38 39 38 38 38 38 39 39 40 41 42 43 45 44 44 44 45 45 43 38 35 37 39 41 45 48 49 49 48 46 44 45 46 45 44 42 40 40 40 40 41 44 48 50 50 50 50 52 54 56 57 57 52 49 49 52 55 55 55 58 61 64 65 66 67 68 69 70 72 76 80 81 81 82 83 82 82 81 79
37 36 36 37 37 38 39 40 40 39 40 40 41 41 42 43 44 44 46 46 47 47 47 47 47 45 42 42 43 46 50 51 51 50 50 50 50 51 51 49 47 43 40 42 44 44 46 47 49 51 52 53 55 56 58 59 58 55 51 50 52 55 56 55 56 60 63 66 67 67 69 71 72 74 77 79 82 83 83 84 84 84 84 83 81
38 38 39 39 39 40 40 41 41 42 42 43 43 43 43 44 45 45 47 48 49 50 48 45 44 44 44 45 46 49 50 50 49 51 52 52 53 55 55 52 48 45 43 46 47 48 49 49 50 54 56 58 59 60 60 59 58 55 53 52 53 54 55 57 59 62 64 66 68 68 69 71 74 78 81 82 83 83 84 85 85 85 85 85 83
40 40 41 41 42 42 42 43 43 44 45 46 45 45 45 46 46 47 49 50 51 52 48 44 42 41 43 45 47 49 49 49 50 52 52 52 53 55 54 50 47 46 47 50 51 52 52 52 54 59 61 62 62 61 60 59 57 56 54 52 52 55 58 61 62 63 65 67 69 71 72 74 77 81 83 84 84 84 85 86 86 86 87 87 85
42 43 43 44 44 44 44 45 45 46 47 48 48 46 46 47 47 48 51 53 54 53 50 47 45 44 44 45 47 49 49 49 50 51 51 51 51 53 54 52 51 53 56 57 57 57 56 56 59 63 64 63 62 61 60 57 55 54 53 53 56 59 63 66 66 66 67 69 72 75 77 78 80 82 83 85 85 86 87 87 88 88 88 88 88
44 45 45 45 46 46 46 47 47 48 50 51 50 49 48 49 49 48 50 52 54 55 53 51 48 47 47 47 47 49 50 50 51 52 52 52 53 54 55 56 57 60 62 62 61 59 58 58 61 62 62 62 61 60 58 55 55 57 58 60 63 65 67 69 69 70 71 73 76 79 80 81 82 83 85 86 88 89 89 89 90 90 90 90 90
46 46 47 47 47 47 47 48 50 50 52 53 53 52 51 51 51 51 51 51 52 54 54 52 50 48 47 47 48 50 52 53 54 54 55 56 57 59 60 60 61 62 63 63 61 60 59 58 58 59 59 60 60 58 57 58 60 63 65 65 66 67 69 70 72 74 76 76 77 78 79 80 83 86 87 88 90 91 91 91 92 92 93 93 92
49 49 49 49 49 50 50 51 52 52 53 54 54 55 54 53 53 53 53 53 53 53 53 53 52 51 50 50 51 53 55 56 57 58 60 60 61 62 63 63 63 62 63 62 61 59 58 57 57 57 58 60 61 60 59 60 63 67 68 68 68 70 72 74 75 76 76 75 75 77 79 82 85 87 88 89 91 92 93 93 94 94 96 95 94
52 51 51 52 52 52 52 53 53 54 55 55 55 56 55 55 56 56 55 55 54 53 54 53 53 53 53 54 54 55 57 58 59 61 62 64 64 65 64 63 62 61 61 60 59 57 57 56 55 56 58 60 61 61 62 65 68 70 70 70 70 71 72 73 73 72 71 72 75 79 82 84 85 87 88 90 92 94 95 96 96 97 98 97 95
54 53 54 54 55 55 55 55 55 55 56 56 57 57 56 56 57 57 56 56 55 54 54 54 54 54 55 56 57 58 58 60 61 62 65 66 66 64 63 63 62 61 61 60 58 57 57 56 56 58 59 60 62 64 67 67 66 64 64 64 63 65 67 68 70 71 72 75 79 83 85 86 87 89 92 95 97 98 99 99 99 99 99 96 94
56 56 56 56 57 58 58 58 57 57 57 57 58 58 58 57 57 57 56 56 55 55 54 54 54 55 56 57 58 59 60 62 63 65 65 65 64 63 64 64 64 63 63 63 61 60 59 60 61 63 65 65 66 65 62 59 56 56 57 59 60 63 67 69 71 73 76 79 83 86 88 88 89 92 96 100 102 103 102 102 101 100 99 95 92
59 58 58 59 60 61 61 61 60 59 59 58 58 59 59 58 58 57 57 56 56 56 55 55 55 55 56 57 58 60 62 64 64 65 64 62 62 63 64 64 65 64 64 65 65 64 64 64 65 67 69 70 69 63 55 54 59 64 66 67 67 69 71 73 75 77 81 84 87 89 91 92 93 94 98 102 105 105 105 104 103 100 98 94 90
61 61 60 61 62 63 64 63 61 61 60 60 60 60 60 59 59 59 58 58 57 57 56 55 55 56 57 58 60 61 63 64 63 63 61 60 61 62 62 64 64 63 64 66 68 68 69 69 71 72 72 72 72 67 61 61 67 73 75 74 71 71 74 77 80 82 85 87 87 88 90 93 95 98 102 104 105 106 105 104 101 99 96 93 88
64 64 63 63 64 65 65 64 63 63 62 62 61 61 61 61 60 60 59 59 59 58 58 57 56 57 58 60 62 62 63 64 63 61 60 59 60 63 64 64 63 62 64 67 68 70 72 73 75 76 77 76 74 73 72 71 71 72 73 71 71 73 78 83 86 87 88 88 88 89 92 96 99 102 105 106 105 104 102 100 98 96 94 90 87
65 66 66 66 67 68 67 66 65 65 65 64 63 62 63 63 62 61 61 60 60 60 59 58 58 59 60 61 63 63 63 63 61 59 58 60 63 65 66 66 64 65 67 69 70 72 74 75 76 77 78 77 76 76 73 67 63 66 71 74 77 81 86 89 90 90 90 90 91 95 98 101 104 105 105 104 103 101 99 97 96 94 91 88 84
67 67 67 68 69 69 69 69 68 69 68 67 66 65 65 65 64 63 63 62 61 61 60 60 60 61 61 63 64 64 63 62 60 59 59 62 65 67 67 67 67 68 69 70 72 74 75 75 76 76 75 75 75 74 67 60 62 69 75 80 83 86 89 91 90 91 93 95 98 101 102 103 105 105 104 102 99 97 96 95 93 90 87 85 81
68 69 69 70 70 71 71 71 72 72 71 69 68 68 68 67 66 65 65 64 62 61 62 62 62 63 63 65 66 66 64 63 62 62 62 65 68 70 69 69 70 71 72 72 73 73 74 74 74 74 74 74 75 74 70 69 72 76 79 82 85 88 90 91 92 94 95 98 100 103 104 105 104 103 102 100 98 96 93 91 90 87 84 81 77
70 71 71 71 71 72 73 73 74 74 73 71 71 71 70 69 68 67 66 65 64 64 64 65 66 66 66 67 68 68 66 66 66 66 67 70 72 73 73 74 75 76 77 78 78 77 76 75 73 72 73 74 75 74 73 75 77 78 80 83 85 86 89 91 94 95 96 97 99 101 103 103 102 101 100 99 98 95 91 88 86 82 79 75 72
73 73 73 73 73 74 74 75 75 75 73 72 72 72 72 71 69 68 67 66 66 66 66 68 69 69 69 70 71 70 69 70 70 71 72 74 75 76 77 78 79 80 80 81 82 81 79 77 75 74 73 72 71 72 73 75 77 79 81 83 84 86 89 91 93 95 97 98 99 99 100 100 100 99 98 97 95 93 90 87 83 78 73 68 65
75 75 74 74 75 75 76 76 76 76 75 74 74 73 71 70 70 69 68 67 68 68 68 70 71 72 72 73 73 72 71 71 72 73 74 76 77 79 80 80 80 81 81 82 81 80 78 77 76 75 71 67 66 68 71 74 77 79 80 82 85 87 88 90 92 94 96 97 98 98 98 97 96 95 94 93 92 89 87 83 79 74 68 63 60
76 76 75 75 76 76 77 77 78 78 76 74 73 71 70 70 70 70 69 68 69 70 70 72 73 73 74 74 74 72 72 72 73 74 75 77 79 80 82 82 82 82 83 82 80 78 78 78 76 73 69 67 68 71 72 74 76 78 80 82 84 86 88 90 92 93 94 95 95 94 93 92 92 91 90 90 88 85 82 78 73 69 64 60 56
76 76 76 76 76 77 77 78 77 75 71 71 71 71 70 71 71 71 70 70 71 71 72 73 74 74 75 75 74 74 73 72 73 75 77 79 81 82 83 83 83 84 84 83 82 80 79 78 75 73 72 74 76 76 76 76 77 78 79 81 83 85 87 88 89 89 89 88 88 88 88 88 89 89 88 87 83 80 76 72 68 64 59 56 52
77 77 76 76 76 77 77 76 73 70 71 73 73 72 72 72 72 72 71 71 72 73 73 74 75 75 76 75 75 75 74 74 75 77 79 81 83 84 84 84 85 85 85 84 83 82 80 78 77 78 79 81 80 79 78 77 77 78 79 80 81 82 82 82 82 82 83 84 85 85 86 87 87 87 85 83 79 75 71 66 62 59 55 51 48
77 76 76 76 77 77 76 74 71 71 74 75 74 74 73 73 72 72 72 72 72 74 74 75 75 75 76 76 77 77 77 76 77 79 82 83 84 85 85 86 87 87 86 85 84 83 82 81 82 82 82 81 80 78 77 77 77 77 77 77 77 78 78 79 80 81 83 84 85 86 86 86 85 83 81 78 74 69 65 61 57 54 49 46 45
78 76 76 77 77 75 73 72 72 73 75 76 75 75 75 74 73 73 72 72 73 74 75 76 75 75 76 77 78 79 80 80 81 83 85 86 86 87 87 88 88 88 88 87 86 85 84 84 83 83 82 81 79 76 75 75 75 75 75 75 76 77 79 80 82 83 84 85 85 86 85 84 82 80 77 72 68 63 59 56 53 49 44 42 43
77 76 76 75 74 72 72 72 74 76 76 76 76 76 75 75 74 73 72 73 74 75 76 76 76 76 77 78 79 80 81 82 84 86 87 88 88 88 89 90 90 90 89 88 87 85 85 84 84 83 81 78 75 74 73 73 74 75 75 76 78 79 81 82 83 84 85 85 85 84 83 81 78 75 70 65 61 58 54 51 48 44 40 39 39
77 77 76 74 73 72 72 73 75 76 76 76 76 76 76 76 75 73 74 74 76 77 77 77 77 78 79 80 81 81 82 84 86 87 88 89 90 90 90 92 92 92 90 88 86 85 85 85 83 80 77 75 74 73 73 74 75 77 78 79 80 81 83 84 84 85 85 84 83 82 80 77 73 68 64 59 55 52 49 46 43 40 37 35 36
77 77 76 74 72 72 73 73 73 75 76 76 77 77 77 76 76 75 76 76 77 78 79 78 79 80 81 82 83 83 83 84 86 87 89 90 91 92 93 93 93 91 89 87 86 86 85 83 79 76 75 75 75 75 75 75 77 79 80 82 83 84 84 85 85 85 84 82 80 78 75 71 66 62 58 54 50 47 45 41 39 36 34 32 33
78 76 75 75 74 73 73 72 73 75 77 76 77 77 78 78 77 77 78 79 79 79 79 80 81 82 83 83 84 84 85 86 87 89 91 92 92 94 94 93 92 90 88 87 86 85 82 80 77 75 75 76 78 78 78 78 79 81 83 84 85 86 86 86 85 84 82 80 77 73 69 65 61 57 53 49 46 43 40 38 35 34 31 30 30
78 77 76 76 74 72 72 73 75 76 77 77 77 78 79 79 79 79 80 80 80 79 80 82 83 83 84 84 85 86 87 88 89 91 92 93 94 94 93 92 90 90 89 87 85 82 79 77 76 76 76 78 80 81 82 82 83 84 85 86 86 87 86 85 83 81 79 75 71 67 63 60 56 52 48 45 42 39 37 35 33 31 29 28 29
79 78 77 75 72 70 72 75 76 76 77 77 78 78 79 79 80 80 80 80 79 80 83 84 85 85 85 86 86 87 88 90 91 92 93 93 93 93 92 91 90 89 88 86 83 80 78 77 77 78 79 80 82 83 84 85 85 85 85 85 85 84 83 82 80 77 73 69 65 62 58 55 51 48 45 42 39 37 35 32 31 30 28 27 28
80 78 76 75 73 72 73 74 75 76 78 78 79 80 80 80 80 80 80 80 81 83 86 86 86 86 87 87 88 89 90 91 92 92 93 92 92 91 90 89 88 87 85 83 81 80 79 79 79 80 81 83 84 85 85 86 85 85 84 83 82 80 79 77 74 70 67 63 60 56 53 50 47 45 42 39 37 35 33 31 30 29 27 26 27
79 78 77 75 74 75 76 77 78 79 80 81 82 82 81 80 79 79 80 82 84 86 87 87 87 87 88 89 89 90 91 91 92 92 91 91 91 90 89 87 86 84 83 82 82 81 81 81 82 83 84 85 85 85 85 84 83 82 80 79 77 75 73 69 66 64 61 58 55 52 49 47 45 42 39 37 35 34 32 30 29 28 27 26 27
77 77 76 75 75 76 78 80 80 81 82 82 82 81 79 77 78 79 82 85 87 88 88 88 88 88 89 89 90 90 91 91 90 90 90 90 89 88 86 85 84 83 82 82 82 83 83 83 84 85 86 86 86 84 82 80 78 77 75 73 71 68 65 63 60 58 56 53 51 48 46 44 42 40 37 35 34 32 31 29 28 27 26 26 27
75 75 75 76 77 78 79 80 81 81 81 80 78 77 76 76 78 81 85 87 88 88 88 88 88 89 89 90 90 90 90 90 90 90 89 88 87 86 85 84 83 83 82 82 83 84 84 85 86 86 87 86 84 81 78 75 72 71 69 66 64 62 59 57 55 53 51 49 47 46 43 41 39 37 35 34 33 31 30 29 27 27 26 26 27
73 73 74 75 76 77 78 79 79 78 77 76 75 75 76 78 82 85 88 88 88 88 88 88 88 88 89 89 89 89 89 89 89 88 87 86 85 85 84 83 83 82 82 83 85 86 86 86 86 85 84 81 78 74 71 69 67 65 63 61 59 57 55 53 51 49 48 46 44 43 41 38 36 35 34 33 32 31 30 28 27 26 26 26 27
72 73 74 75 77 77 77 77 76 75 74 74 75 77 80 83 86 87 88 88 88 88 88 87 87 88 88 88 88 88 88 88 86 85 85 85 85 84 83 82 82 83 83 84 85 87 87 86 84 82 78 75 71 68 66 63 62 61 59 58 56 53 50 48 47 46 44 43 42 40 38 36 34 34 33 32 31 30 29 28 27 26 26 27 27
73 74 75 76 77 77 75 74 73 74 75 77 79 82 84 86 87 88 88 88 87 86 86 87 87 87 88 88 88 87 86 85 85 85 85 85 84 83 82 82 83 85 85 84 84 85 85 83 80 77 73 69 66 64 61 60 59 58 57 55 53 50 47 45 44 43 42 41 39 38 36 34 33 32 31 31 30 30 29 28 27 26 27 27 28
76 77 77 78 78 76 74 73 74 76 78 81 83 85 86 87 87 88 88 87 86 85 85 86 86 86 87 87 86 85 84 85 85 85 84 83 83 83 83 84 84 85 85 84 83 83 81 78 75 72 69 66 63 60 59 57 56 55 53 51 48 46 44 42 41 41 39 38 37 36 34 33 31 31 30 29 29 29 28 27 26 26 27 28 29
80 81 81 80 78 76 75 76 77 80 82 84 85 86 86 86 87 87 86 86 85 85 84 84 84 85 86 86 85 84 84 85 84 83 83 83 83 84 84 84 84 84 84 84 83 80 77 73 70 67 64 62 59 57 55 54 53 51 49 47 45 43 42 40 39 38 37 36 35 34 33 32 31 29 28 27 27 27 27 26 25 25 26 28 29
83 83 82 80 77 76 78 80 82 84 85 86 86 87 86 86 86 85 85 84 84 84 84 85 84 83 84 85 85 84 84 83 83 82 82 83 84 85 85 84 84 84 83 83 81 77 72 68 65 62 59 57 54 53 51 50 49 47 46 44 42 40 39 37 37 36 35 34 33 32 32 31 30 29 27 26 25 26 26 25 24 25 26 28 30
84 84 82 80 79 80 83 85 86 87 87 87 87 86 86 85 84 83 83 83 83 84 85 84 82 81 83 84 84 84 83 82 82 82 83 85 85 85 85 85 85 84 82 80 76 72 68 63 60 57 54 52 50 49 48 47 46 45 43 41 39 38 36 35 34 33 33 32 31 31 31 30 29 28 27 25 24 24 25 25 24 24 26 28 31
86 85 84 84 85 86 88 89 88 88 87 87 85 84 83 83 82 82 82 83 84 84 83 82 81 81 82 83 83 83 83 83 83 84 85 85 85 85 85 85 84 82 79 76 71 66 62 59 56 53 50 48 47 47 46 45 44 43 41 39 38 36 34 33 32 31 31 30 30 30 30 30 29 28 26 24 23 23 24 24 24 24 25 28 31
87 87 87 88 88 89 90 89 89 88 87 85 83 82 81 81 81 82 82 82 82 82 82 82 81 81 82 82 82 83 84 84 84 84 85 85 85 84 84 83 82 79 76 71 66 61 57 54 51 49 47 46 45 44 43 43 42 40 39 38 36 34 33 32 30 29 29 29 28 28 29 29 28 27 25 24 23 22 23 24 24 24 25 28 32
90 90 91 91 90 89 89 89 88 86 84 82 81 81 81 80 81 82 81 80 80 81 81 82 81 82 82 83 84 84 85 85 84 84 84 84 84 84 83 81 78 75 71 66 60 56 52 50 48 47 45 44 42 41 41 40 39 38 37 36 35 33 32 30 29 28 27 27 27 27 28 28 28 26 24 23 21 21 22 23 24 25 26 28 32
93 92 91 91 91 90 90 88 85 82 81 81 80 80 80 80 80 81 80 79 79 80 81 82 82 83 83 84 85 86 85 84 84 83 83 83 83 82 80 77 73 69 64 59 55 51 48 47 46 45 43 42 41 39 38 37 37 36 36 34 33 32 31 30 28 27 27 26 26 26 27 27 27 25 23 21 20 20 21 22 23 24 26 28 31
92 91 91 92 94 93 89 85 82 81 81 80 80 79 79 79 80 80 79 79 79 80 81 82 83 84 85 85 85 85 84 83 83 83 83 82 81 79 76 72 67 62 57 53 50 47 45 43 43 42 41 40 39 38 37 36 35 35 34 33 32 31 30 29 28 27 26 26 26 26 26 26 26 24 22 20 19 19 20 21 23 24 25 27 31
94 95 96 95 92 88 84 81 81 81 80 79 78 79 79 79 80 79 79 79 80 81 82 83 84 85 86 85 84 83 82 82 82 82 81 80 77 74 70 65 60 55 51 49 47 45 44 42 40 39 39 38 38 37 36 36 35 34 33 32 31 30 30 29 28 27 26 26 26 26 26 26 25 23 22 20 19 19 19 20 21 23 25 27 30
97 95 92 88 85 83 82 82 81 79 78 78 79 79 79 79 79 79 79 80 81 83 85 85 86 86 85 84 82 81 81 81 81 80 78 75 72 67 63 58 53 49 47 45 45 44 43 41 39 38 37 37 36 35 35 35 35 35 33 32 31 30 29 28 28 27 26 26 26 26 26 25 24 23 21 20 18 18 18 19 20 22 24 27 30
88 86 84 83 83 82 81 79 77 77 78 79 80 80 79 79 79 79 80 82 84 85 86 87 86 85 84 82 81 80 80 80 78 76 73 69 65 60 56 52 49 46 44 43 42 42 41 40 39 37 37 36 35 34 33 33 33 33 33 32 31 30 28 27 27 26 26 26 25 25 25 24 24 23 21 20 18 18 18 18 19 21 23 26 29
83 83 82 80 78 77 76 76 77 78 79 79 79 79 79 80 80 81 83 84 86 87 87 87 86 84 82 80 80 79 78 76 73 70 66 62 58 54 51 48 46 45 43 41 41 40 40 39 38 37 36 36 35 34 33 31 31 32 32 32 31 30 28 27 26 26 25 25 25 25 25 24 23 23 22 20 18 17 17 18 18 20 22 25 29
Wind_Direction
293 296 298 300 300 300 300 301 304 308 309 310 311 312 312 311 311 312 313 314 315 316 315 315 312 307 305 307 306 307 310 312 315 316 316 314 312 313 312 309 306 302 299 300 300 297 294 294 295 298 300 301 300 301 304 306 309 308 305 301 299 297 298 299 299 300 302 304 305 307 308 310 311 312 313 314 316 317 318 320 321 323 324 324 324
292 294 295 297 297 298 299 302 305 307 308 308 309 310 310 308 309 311 313 313 314 315 314 312 308 304 303 306 307 308 310 312 312 313 314 314 312 312 312 310 307 303 297 296 296 294 293 294 294 295 296 297 299 302 305 307 307 304 300 296 294 294 295 296 297 300 302 303 305 306 307 308 309 310 311 312 314 316 317 318 319 321 322 323 322
291 292 294 295 295 297 299 303 305 307 307 307 307 307 307 306 308 311 312 312 311 314 315 313 309 306 304 305 307 307 308 309 309 309 310 311 310 310 311 309 305 300 295 293 294 294 295 295 294 294 296 298 300 303 305 305 303 300 297 293 292 292 293 295 297 299 301 302 304 305 305 306 307 308 309 311 313 315 316 316 318 320 321 320 320
290 291 293 294 295 297 300 303 304 305 305 305 304 304 304 305 307 309 310 310 310 312 313 312 310 307 303 302 302 303 305 306 305 306 308 309 309 308 307 305 302 298 295 294 295 295 295 295 294 295 298 301 302 303 303 302 299 296 294 292 290 291 293 295 297 298 300 301 301 302 303 304 305 307 309 311 312 314 314 316 317 318 319 319 318
289 291 292 293 295 297 300 302 303 303 303 302 301 302 303 304 306 308 309 309 310 311 310 308 306 304 301 299 299 301 303 304 304 306 307 308 307 304 300 298 297 296 295 296 296 295 295 295 295 297 301 303 302 302 302 299 295 293 291 290 289 290 292 293 295 296 297 298 299 300 301 303 305 307 308 310 311 313 313 314 315 316 317 317 317
287 288 290 292 294 296 299 300 301 301 300 300 301 302 303 303 304 306 307 308 309 309 309 307 305 302 300 299 299 301 304 305 306 306 307 307 306 303 300 298 297 296 296 296 296 295 295 294 295 298 301 301 301 300 298 293 290 289 289 289 289 289 290 291 293 294 295 296 298 299 301 303 305 307 308 310 311 312 313 314 314 315 315 315 315
286 287 289 291 293 295 297 298 298 298 299 299 300 301 302 302 304 306 307 307 307 306 306 305 304 302 301 300 301 303 305 307 308 309 309 308 307 306 304 303 302 300 299 298 297 296 295 295 296 297 298 299 299 296 292 289 287 288 290 290 290 289 289 290 292 293 294 296 297 299 301 304 306 307 309 310 311 311 312 312 313 313 314 314 314
285 287 289 290 291 293 294 295 296 296 297 298 299 300 301 302 304 306 307 307 306 305 304 303 302 302 301 301 301 303 305 308 309 309 309 308 308 307 306 305 304 303 301 299 297 296 295 295 295 295 296 296 294 292 290 288 288 289 290 290 289 289 290 291 292 292 294 296 298 301 303 306 307 308 309 309 309 310 310 311 312 312 313 313 313
285 286 287 288 289 291 292 293 294 295 295 297 297 298 300 302 304 306 306 306 305 304 303 303 302 301 301 301 301 303 304 306 307 307 308 308 308 307 305 304 303 303 302 299 297 294 292 293 293 294 294 294 293 292 291 291 290 290 290 290 290 290 291 291 291 292 294 296 299 302 304 306 307 307 307 307 307 308 309 310 310 311 311 311 312
284 285 286 288 289 290 291 292 293 293 294 295 296 297 299 301 303 304 305 305 304 304 303 302 301 300 301 301 302 303 304 305 306 307 308 308 307 306 305 304 303 302 301 299 296 293 290 289 289 290 291 291 292 294 295 295 294 291 290 291 291 292 292 292 292 293 294 297 300 302 304 305 306 306 305 305 306 307 308 309 309 310 310 310 311
283 284 286 287 289 290 290 291 291 292 293 294 295 296 297 299 301 302 302 303 303 303 302 301 300 300 300 301 302 303 305 306 307 307 307 307 306 305 304 303 302 302 301 299 297 294 291 289 288 288 288 289 292 297 300 300 296 292 292 294 294 294 295 294 293 293 296 299 301 302 303 304 305 305 305 305 306 307 308 308 309 309 309 309 309
282 284 286 287 288 289 289 290 291 291 292 292 293 294 296 298 299 300 301 301 302 301 301 300 300 300 300 301 303 305 306 307 307 307 306 305 304 304 303 303 303 302 300 299 297 296 293 291 289 288 288 289 291 294 294 290 288 290 292 295 296 295 295 294 294 295 298 300 302 303 303 304 304 304 304 305 306 306 307 308 308 308 308 308 307
283 284 285 286 286 287 287 288 289 290 290 291 292 293 296 298 299 300 301 301 301 301 300 300 300 301 302 303 305 307 308 308 307 307 305 303 305 306 305 304 304 302 300 298 297 295 294 292 290 289 289 289 290 290 288 285 286 289 290 291 292 292 292 293 294 296 299 301 303 303 303 303 303 303 303 304 305 306 306 307 307 307 307 307 305
282 283 284 284 285 285 286 287 288 289 290 291 292 294 297 298 299 301 301 302 302 301 301 301 302 303 304 306 307 308 309 308 308 308 306 305 306 308 306 305 304 302 300 299 297 296 295 294 293 292 291 290 290 289 289 289 290 288 287 287 287 287 289 291 293 295 298 301 302 301 301 301 301 301 302 303 304 305 306 306 306 306 307 306 304
280 281 282 283 284 285 286 287 288 289 290 291 293 295 297 298 300 301 302 302 302 302 302 302 303 305 306 307 307 308 309 309 309 308 307 306 306 307 307 305 304 302 301 300 299 298 297 296 295 294 293 293 292 291 291 290 286 282 282 283 284 286 288 291 293 295 297 298 298 298 298 299 299 300 301 302 304 304 305 305 305 305 305 304 301
279 280 281 282 284 285 287 288 289 290 291 293 295 297 298 299 301 302 302 302 302 302 302 303 305 306 307 307 307 309 309 309 308 307 306 305 305 306 307 306 304 303 302 301 300 300 299 298 296 295 294 293 293 292 290 285 278 277 280 282 284 287 289 291 293 295 296 296 296 296 297 297 298 300 301 302 303 304 304 304 304 304 303 301 299
278 279 280 282 284 286 287 289 290 291 292 295 297 298 299 301 302 303 303 303 303 303 303 304 305 306 307 307 308 309 308 307 306 306 304 303 303 305 306 306 306 305 305 305 304 303 301 300 298 297 295 294 293 291 288 284 282 282 283 285 286 288 290 291 292 293 295 296 296 296 297 298 300 301 302 302 302 303 303 302 302 302 301 299 297
278 279 280 282 284 286 287 289 290 292 294 296 297 298 300 301 302 303 304 304 304 304 304 305 305 306 307 307 307 308 307 306 306 306 305 305 306 307 308 309 309 308 308 308 307 306 305 303 301 299 297 296 295 293 289 287 286 286 286 287 289 290 291 292 293 294 295 296 296 297 298 299 300 301 301 301 302 302 301 301 300 300 299 297 296
277 279 281 282 284 286 287 289 290 292 294 295 297 298 300 301 301 302 303 303 303 304 304 304 305 306 306 307 307 308 307 307 307 308 308 308 308 309 310 310 310 309 309 308 307 307 306 304 303 302 300 298 296 293 290 288 288 288 289 289 290 291 292 293 294 295 295 296 297 298 299 299 300 300 300 300 301 301 301 301 300 299 297 295 293
277 278 280 282 284 285 287 288 290 291 293 294 296 297 299 300 300 301 302 302 302 302 303 303 304 305 306 307 307 307 307 307 308 308 308 308 308 308 309 308 308 307 306 306 306 305 304 303 302 302 301 299 296 294 293 291 292 292 292 292 292 293 293 294 294 295 296 296 297 298 298 298 298 299 299 299 299 299 300 300 300 298 297 294 291
276 278 280 281 283 285 287 288 290 291 292 294 295 296 297 298 299 301 301 301 301 301 302 302 303 304 305 306 306 306 306 306 307 307 306 306 306 306 306 306 306 305 305 305 305 303 302 301 300 300 300 299 298 297 295 294 294 294 293 293 293 293 293 294 294 295 296 296 297 297 297 297 297 297 297 297 298 299 300 300 299 297 295 293 290
275 277 279 281 284 285 287 289 291 292 291 292 294 296 298 299 299 300 300 300 300 300 300 301 302 303 304 304 304 304 305 305 305 305 304 304 304 305 305 305 305 304 305 305 304 303 302 301 300 298 298 298 298 297 295 293 293 292 291 291 292 292 292 293 294 295 296 296 296 297 297 297 297 297 297 298 299 300 300 299 297 295 293 291 288
275 277 280 282 284 285 287 289 290 289 287 290 294 296 297 298 297 298 298 298 298 299 300 301 302 302 302 302 303 303 303 303 303 302 302 303 303 304 304 304 304 304 304 304 303 302 302 301 300 299 298 297 297 297 296 295 294 293 293 293 293 294 295 295 296 297 297 297 298 297 297 297 297 298 299 300 301 300 299 297 295 293 291 288 285
276 279 281 282 283 285 286 287 287 285 286 290 293 295 295 295 295 295 296 296 297 298 299 300 301 301 301 301 302 302 302 302 301 301 301 302 303 303 303 303 303 303 303 303 302 302 302 302 301 301 300 299 299 299 298 297 297 297 297 298 298 298 299 299 299 299 299 299 298 298 298 298 299 300 301 301 301 299 297 295 293 290 288 285 282
277 279 280 281 283 285 286 286 285 285 286 289 292 293 293 293 293 294 294 295 296 297 298 299 299 299 300 301 301 301 301 301 301 300 301 302 303 303 303 303 303 303 303 303 303 303 303 303 303 303 302 301 301 300 300 299 299 300 300 301 301 301 301 300 300 300 299 299 299 299 299 300 301 302 302 301 300 298 296 294 291 288 286 282 279
277 278 279 281 282 284 284 284 284 283 285 287 289 290 291 291 292 293 293 294 295 297 297 298 298 298 299 299 299 299 299 300 300 301 301 302 303 303 302 302 302 303 303 304 304 304 304 304 304 304 303 302 302 301 301 301 302 302 302 302 302 301 301 300 300 300 300 300 300 300 301 302 302 302 302 300 299 297 295 292 289 286 283 280 276
276 278 279 279 280 280 281 282 282 282 284 286 288 289 290 291 291 292 293 294 295 296 296 296 297 297 298 298 297 298 299 299 300 301 301 302 302 302 302 302 303 304 304 304 305 305 305 305 305 304 303 303 302 302 302 302 303 303 302 302 302 302 301 301 301 301 300 301 301 302 303 303 303 302 301 300 298 296 293 291 288 285 281 277 274
275 277 278 279 279 279 280 281 281 282 284 286 287 289 290 291 291 292 293 294 294 294 295 295 296 296 297 297 297 298 298 299 300 300 301 301 301 301 302 303 304 305 305 305 305 305 305 305 305 304 303 303 303 303 303 303 303 303 303 303 303 302 302 301 301 301 301 302 303 303 303 303 303 302 301 299 297 295 292 289 285 282 279 275 271
275 276 277 277 278 279 280 280 280 282 284 286 287 288 289 290 291 291 292 293 293 293 294 294 295 296 296 296 297 298 298 299 299 299 300 300 300 301 303 304 304 305 305 305 305 305 305 305 305 304 304 303 303 304 304 305 305 305 304 304 303 302 302 302 302 302 303 304 304 304 304 304 303 302 301 299 296 293 290 287 283 279 276 272 267
275 275 276 277 278 278 278 278 279 282 284 286 287 288 288 289 289 290 291 292 292 292 293 294 295 295 295 296 297 298 298 299 299 299 299 300 301 302 303 304 304 305 305 305 305 305 304 304 304 304 304 304 305 305 306 306 306 305 304 303 302 302 302 302 302 302 303 304 304 304 304 303 303 302 300 297 294 291 288 284 280 276 272 268 263
275 276 276 277 277 277 276 278 280 282 284 285 286 286 287 287 288 289 290 291 291 291 293 294 294 295 295 296 297 298 298 298 298 299 300 301 302 303 303 304 304 305 305 305 305 304 304 303 303 304 305 306 306 306 306 306 305 304 303 302 301 301 301 301 302 302 303 303 303 303 303 303 302 301 298 295 291 288 284 281 276 272 268 263 260
275 276 276 276 276 276 277 279 280 282 283 284 284 285 286 287 288 289 290 290 291 291 293 294 295 295 296 296 297 297 297 298 298 300 301 302 302 303 303 304 304 304 304 304 304 303 303 304 305 306 307 307 307 307 306 305 304 303 302 301 301 301 301 301 302 302 303 303 303 303 302 302 300 298 295 292 288 284 281 277 273 268 264 259 257
275 275 275 275 275 275 276 278 280 281 282 283 284 285 286 288 289 289 289 290 291 292 293 294 295 295 296 296 296 297 297 298 300 301 302 302 302 303 304 304 304 304 303 303 303 304 305 307 308 308 308 307 307 306 305 304 303 302 301 301 301 301 301 302 302 302 302 302 302 302 302 301 299 296 292 288 284 281 278 274 269 264 260 255 253
274 274 274 274 275 275 277 278 280 281 282 283 285 286 287 288 289 289 289 290 291 293 293 294 294 294 295 295 296 297 298 300 300 301 301 302 303 303 303 303 302 302 302 303 304 306 307 308 309 308 308 307 306 306 305 303 302 301 301 301 301 301 302 302 302 301 301 301 301 301 300 299 296 293 290 285 282 279 276 272 266 262 257 252 249
273 273 274 275 276 277 279 280 282 283 284 285 286 288 289 289 289 289 289 290 291 292 293 293 293 294 294 295 297 298 299 300 300 301 302 302 302 302 302 302 302 302 304 306 307 308 309 309 309 308 307 306 306 305 304 303 302 301 302 302 302 302 302 302 301 301 301 301 300 300 299 297 294 291 288 284 280 277 273 269 264 259 254 249 244
272 273 274 276 277 279 280 282 282 283 285 286 288 289 289 289 288 289 289 290 291 291 292 292 293 294 295 296 297 298 299 300 301 302 302 301 301 301 301 302 303 305 307 309 309 309 309 309 308 307 306 305 305 304 303 302 302 302 302 302 302 302 302 301 300 300 300 300 299 298 297 295 293 289 286 282 278 275 271 267 262 256 250 245 239
270 272 274 276 278 280 281 282 283 285 286 288 288 288 288 287 287 288 288 289 290 291 291 292 293 294 295 296 297 298 299 300 301 301 300 300 300 301 302 304 306 308 309 310 310 309 308 308 307 306 305 305 305 304 303 303 303 303 303 303 302 302 302 301 300 299 299 298 298 297 297 295 293 289 285 281 277 273 269 265 259 253 246 241 234
270 272 275 277 279 280 281 283 284 286 287 287 287 286 286 286 286 287 288 289 290 291 292 293 294 295 296 296 298 299 300 300 300 300 300 300 301 303 305 307 308 309 309 309 309 308 308 308 307 306 306 306 305 304 303 303 303 303 302 302 302 301 301 300 299 298 298 297 297 297 297 296 293 289 285 281 276 272 268 263 257 251 243 237 230
271 273 276 278 280 281 282 283 284 285 285 285 285 285 285 286 286 287 288 289 290 291 292 293 294 296 297 298 299 299 299 299 299 300 301 302 304 306 307 308 309 309 309 309 309 309 308 308 308 308 307 306 305 304 303 303 303 302 302 301 301 301 300 299 298 298 297 297 297 297 298 297 294 290 286 281 276 272 267 262 256 249 241 234 226
271 274 276 278 279 281 281 282 282 283 284 284 285 285 286 286 287 288 289 290 291 292 293 294 295 297 297 298 298 299 299 299 300 301 303 305 306 307 308 308 309 309 310 310 310 309 309 309 309 308 307 306 305 304 303 303 302 302 301 301 300 300 300 299 298 297 297 297 297 298 298 297 295 291 287 282 276 271 266 262 255 247 240 232 224
271 273 276 278 278 279 279 281 282 284 284 285 285 286 287 287 287 288 290 291 292 292 293 294 296 297 297 297 298 298 299 300 302 304 305 307 307 308 308 309 310 310 310 310 310 310 310 309 308 307 306 306 305 304 304 303 302 301 300 300 300 299 299 298 297 296 297 297 298 299 299 298 295 292 288 282 276 270 265 260 254 246 238 231 223
270 273 275 275 276 277 279 281 283 284 285 286 286 287 287 287 288 289 290 290 291 292 293 295 296 296 296 297 298 299 300 302 304 306 307 307 308 308 309 310 310 310 310 310 310 310 310 309 308 308 308 307 306 305 304 304 302 301 301 300 299 299 299 298 297 297 297 298 298 299 298 297 295 292 288 283 276 269 264 259 253 245 237 230 223
270 272 273 274 276 278 280 282 283 284 286 286 287 287 288 288 289 290 290 291 292 293 294 295 295 296 297 298 299 301 302 304 306 307 307 307 308 308 309 310 310 310 310 310 310 310 310 309 309 309 309 308 307 306 305 304 303 302 301 300 300 299 299 299 298 298 298 298 299 298 297 295 293 290 287 283 277 270 263 258 252 244 236 229 222
271 272 273 275 278 280 281 282 284 285 286 286 287 287 288 289 290 290 291 292 293 294 294 295 296 297 298 299 301 302 304 305 306 306 307 307 308 308 309 309 310 310 310 310 310 310 309 309 309 309 309 308 308 307 306 306 305 303 302 302 301 300 300 300 300 299 299 299 298 297 295 292 290 288 285 282 277 271 264 258 252 244 236 228 222
272 274 276 278 279 281 283 284 285 286 286 286 287 288 289 290 291 291 292 293 293 294 295 296 297 299 300 301 302 303 304 305 306 306 306 307 308 308 309 309 309 309 309 309 309 309 309 309 309 308 308 308 308 307 307 307 306 305 304 303 303 302 301 301 301 301 300 299 297 294 292 289 287 286 284 282 279 274 266 259 252 244 236 228 223
274 276 278 280 281 283 284 285 285 285 285 286 288 289 289 290 291 291 292 292 293 294 296 297 298 299 300 301 302 304 304 305 306 306 307 307 308 308 308 308 308 308 307 307 307 308 308 308 308 308 308 308 308 308 308 308 308 307 307 306 305 303 302 301 301 301 301 299 295 292 289 287 285 284 283 282 280 275 267 259 252 244 236 229 224
276 277 279 281 282 283 283 283 283 284 285 287 288 288 289 290 290 290 291 292 294 295 296 298 299 300 301 302 303 304 305 305 306 306 307 307 307 307 307 307 307 306 306 306 307 307 306 306 306 306 307 307 308 309 309 310 309 309 309 308 307 305 303 301 301 300 300 298 295 291 288 286 284 283 282 280 278 275 268 260 251 243 236 229 224
276 277 279 280 281 281 281 282 283 284 286 287 287 288 289 289 289 290 291 293 294 295 296 297 299 300 301 302 303 304 304 305 305 306 306 306 306 306 305 305 305 305 305 305 305 304 304 304 304 305 306 307 309 310 311 312 311 311 311 310 308 306 304 302 300 299 299 297 294 290 288 286 284 282 279 277 276 275 270 262 253 243 235 228 224
277 278 279 280 280 280 281 283 284 285 286 286 287 287 288 288 288 289 291 292 294 295 296 298 299 300 301 302 303 303 304 304 305 305 305 304 304 304 304 303 303 303 303 303 303 302 302 303 304 305 306 308 309 310 311 312 312 312 311 311 310 308 306 302 299 297 296 295 293 290 289 286 284 280 277 275 274 273 270 264 256 245 235 228 222
277 278 279 280 280 281 282 283 284 284 285 286 286 286 287 287 288 289 290 292 293 295 296 298 299 300 301 302 303 303 304 304 304 304 303 303 302 302 302 301 302 301 301 300 300 300 301 303 305 306 307 308 309 310 311 311 311 311 311 311 311 310 308 304 300 295 293 292 291 290 288 286 283 279 275 273 272 271 269 266 259 248 237 228 222
278 280 280 280 281 281 282 282 283 284 284 285 286 286 286 287 288 289 290 291 293 295 297 298 299 300 301 302 303 303 303 303 302 302 302 301 300 300 300 299 299 299 299 298 298 298 300 302 304 306 306 307 309 310 311 311 311 310 309 309 309 309 308 306 302 296 292 289 288 288 287 284 281 277 273 270 269 269 268 267 261 252 240 230 223
Height
10949 10949 10948 10947 10945 10943 10941 10940 10940 10939 10938 10937 10936 10934 10933 10930 10928 10926 10924 10922 10921 10919 10917 10915 10913 10911 10908 10906 10903 10901 10899 10898 10896 10894 10892 10890 10888 10887 10884 10881 10878 10875 10873 10871 10869 10867 10864 10862 10858 10855 10853 10851 10849 10846 10843 10841 10838 10835 10833 10831 10829 10827 10824 10822 10819 10814 10810 10809 10809 10807 10804 10801 10798 10796 10795 10792 10790 10788 10786 10783 10780 10778 10777 10774 10772
10946 10945 10944 10943 10941 10939 10937 10936 10936 10936 10934 10933 10931 10930 10929 10926 10924 10922 10920 10918 10916 10915 10913 10910 10908 10906 10905 10903 10900 10897 10895 10893 10892 10890 10887 10885 10883 10881 10879 10876 10874 10871 10868 10865 10863 10860 10858 10856 10853 10849 10846 10844 10842 10840 10837 10835 10832 10830 10829 10827 10823 10821 10819 10816 10814 10810 10804 10800 10799 10797 10796 10793 10789 10786 10784 10782 10780 10778 10775 10773 10770 10768 10766 10765 10762
10942 10941 10939 10938 10936 10935 10934 10933 10932 10931 10930 10928 10927 10926 10924 10921 10919 10918 10915 10913 10911 10910 10909 10907 10904 10902 10901 10899 10897 10894 10892 10891 10889 10886 10883 10881 10879 10876 10874 10872 10869 10866 10863 10860 10857 10854 10851 10849 10847 10843 10840 10838 10836 10834 10832 10829 10827 10824 10823 10821 10818 10815 10812 10810 10807 10803 10799 10794 10791 10788 10787 10785 10782 10779 10775 10772 10770 10768 10765 10762 10760 10758 10756 10755 10752
10937 10936 10935 10933 10932 10931 10930 10929 10928 10927 10925 10923 10922 10921 10920 10917 10915 10913 10911 10909 10907 10906 10905 10903 10902 10900 10898 10896 10893 10890 10889 10887 10884 10882 10879 10876 10874 10871 10869 10867 10864 10862 10859 10856 10853 10849 10846 10843 10840 10836 10834 10832 10830 10828 10826 10823 10820 10818 10816 10815 10813 10810 10806 10803 10801 10797 10793 10788 10784 10781 10779 10777 10774 10770 10766 10763 10760 10757 10755 10752 10749 10747 10745 10744 10741
10933 10932 10930 10929 10927 10927 10926 10925 10924 10922 10920 10918 10917 10916 10915 10913 10911 10910 10906 10903 10901 10900 10900 10899 10897 10896 10894 10892 10889 10886 10884 10882 10879 10877 10874 10871 10869 10866 10864 10862 10860 10857 10853 10850 10848 10844 10841 10838 10834 10830 10828 10826 10824 10821 10819 10816 10814 10812 10810 10809 10807 10804 10800 10796 10793 10790 10786 10782 10777 10773 10771 10768 10765 10761 10757 10754 10751 10748 10745 10742 10739 10737 10734 10732 10729
10929 10927 10926 10924 10923 10923 10923 10921 10919 10917 10914 10911 10910 10911 10910 10908 10907 10906 10904 10901 10897 10895 10894 10893 10892 10890 10888 10886 10884 10881 10879 10877 10874 10871 10869 10866 10863 10860 10858 10857 10854 10851 10847 10844 10841 10838 10835 10832 10828 10825 10823 10820 10818 10815 10812 10810 10808 10805 10804 10802 10799 10796 10792 10788 10785 10782 10779 10774 10769 10765 10761 10759 10755 10751 10748 10745 10741 10738 10735 10732 10729 10726 10724 10721 10717
10923 10922 10921 10920 10919 10919 10919 10917 10915 10913 10909 10906 10904 10904 10904 10903 10902 10901 10900 10897 10894 10891 10889 10887 10886 10885 10883 10881 10879 10876 10874 10871 10867 10864 10862 10860 10857 10853 10850 10848 10846 10843 10840 10837 10834 10831 10829 10825 10822 10820 10817 10814 10812 10810 10807 10804 10800 10797 10795 10793 10790 10787 10783 10780 10777 10774 10770 10766 10762 10757 10753 10749 10745 10741 10738 10734 10731 10728 10726 10723 10719 10715 10712 10710 10706
10917 10917 10916 10915 10915 10914 10914 10913 10910 10908 10905 10902 10900 10898 10898 10898 10896 10895 10894 10892 10889 10887 10884 10882 10880 10878 10877 10875 10873 10871 10868 10865 10861 10857 10854 10852 10850 10847 10843 10840 10838 10836 10833 10829 10827 10824 10821 10819 10816 10814 10811 10808 10805 10803 10800 10797 10793 10789 10786 10784 10781 10778 10774 10771 10768 10765 10761 10757 10753 10748 10744 10740 10735 10732 10729 10725 10722 10720 10717 10713 10710 10705 10701 10698 10695
10912 10911 10911 10910 10910 10909 10909 10908 10906 10904 10901 10898 10896 10894 10893 10892 10890 10889 10888 10886 10884 10882 10879 10877 10874 10873 10871 10868 10867 10865 10862 10859 10855 10851 10847 10844 10842 10839 10836 10833 10831 10828 10825 10822 10820 10818 10815 10812 10810 10808 10805 10802 10798 10796 10793 10790 10786 10782 10778 10775 10772 10768 10765 10761 10758 10755 10752 10748 10743 10739 10735 10730 10726 10723 10720 10717 10714 10711 10708 10704 10700 10695 10691 10687 10683
10906 10906 10905 10904 10904 10903 10903 10902 10900 10898 10896 10894 10891 10888 10888 10887 10886 10884 10882 10880 10878 10876 10874 10871 10869 10867 10865 10862 10860 10858 10855 10852 10849 10845 10841 10837 10834 10832 10828 10826 10824 10822 10818 10815 10813 10811 10809 10806 10804 10802 10799 10796 10793 10790 10786 10781 10776 10772 10768 10765 10762 10759 10756 10752 10748 10745 10741 10738 10733 10729 10725 10721 10716 10712 10709 10705 10702 10700 10697 10694 10690 10685 10680 10677 10672
10899 10900 10899 10899 10898 10896 10895 10895 10894 10892 10891 10889 10886 10883 10883 10883 10881 10879 10877 10875 10873 10871 10869 10866 10863 10861 10859 10856 10854 10851 10848 10845 10842 10839 10835 10831 10828 10825 10821 10817 10816 10815 10812 10809 10807 10804 10802 10800 10797 10795 10792 10791 10789 10786 10779 10772 10767 10762 10758 10756 10753 10750 10746 10742 10738 10734 10731 10728 10724 10719 10715 10711 10707 10702 10697 10693 10689 10686 10684 10681 10678 10673 10669 10666 10662
10893 10894 10894 10892 10891 10889 10887 10887 10887 10886 10885 10883 10882 10879 10878 10877 10876 10874 10872 10870 10868 10866 10863 10861 10858 10856 10854 10851 10848 10845 10842 10838 10835 10832 10829 10825 10822 10819 10815 10810 10808 10808 10805 10801 10799 10796 10794 10792 10789 10787 10785 10784 10784 10782 10776 10768 10762 10756 10751 10749 10746 10742 10737 10732 10728 10725 10721 10718 10714 10708 10703 10701 10698 10692 10687 10683 10678 10674 10672 10668 10664 10660 10656 10654 10651
10886 10887 10887 10886 10885 10882 10881 10881 10881 10880 10879 10878 10876 10875 10873 10871 10870 10868 10866 10864 10862 10859 10857 10855 10852 10849 10847 10844 10841 10839 10835 10831 10828 10826 10822 10818 10815 10813 10809 10804 10802 10801 10798 10794 10791 10788 10786 10784 10780 10778 10777 10776 10775 10774 10770 10765 10758 10751 10745 10742 10739 10734 10728 10722 10719 10716 10712 10708 10704 10699 10694 10691 10688 10683 10678 10674 10670 10666 10661 10657 10651 10647 10643 10640 10637
10879 10879 10880 10880 10878 10876 10874 10874 10874 10873 10872 10871 10870 10870 10868 10865 10863 10862 10859 10857 10855 10852 10849 10848 10845 10842 10840 10836 10833 10831 10828 10824 10820 10818 10815 10811 10808 10806 10802 10798 10796 10794 10791 10788 10785 10781 10777 10775 10772 10768 10767 10766 10764 10762 10761 10758 10753 10745 10737 10733 10729 10724 10719 10714 10712 10708 10705 10700 10695 10690 10686 10681 10678 10673 10668 10664 10661 10656 10652 10646 10639 10635 10632 10627 10622
10873 10872 10872 10872 10870 10868 10868 10867 10866 10865 10864 10864 10864 10863 10861 10859 10857 10855 10852 10849 10847 10844 10841 10840 10838 10835 10832 10829 10826 10824 10822 10818 10814 10811 10808 10805 10802 10799 10796 10793 10790 10787 10784 10782 10779 10774 10770 10767 10764 10760 10757 10755 10752 10750 10751 10750 10745 10738 10730 10724 10720 10715 10710 10706 10703 10699 10695 10692 10686 10681 10677 10671 10667 10663 10659 10655 10651 10646 10642 10636 10629 10624 10621 10616 10610
10868 10866 10865 10864 10862 10861 10861 10860 10858 10856 10855 10856 10856 10855 10853 10851 10849 10848 10845 10842 10839 10836 10833 10831 10829 10827 10825 10822 10819 10817 10815 10813 10810 10805 10801 10798 10795 10792 10790 10787 10783 10780 10777 10775 10771 10767 10762 10759 10756 10752 10749 10746 10742 10741 10742 10740 10735 10730 10724 10717 10711 10706 10701 10696 10693 10689 10684 10679 10674 10670 10666 10661 10656 10652 10647 10644 10640 10636 10632 10626 10619 10615 10611 10605 10600
10861 10859 10858 10857 10856 10854 10853 10852 10849 10848 10847 10847 10847 10845 10843 10842 10840 10838 10835 10832 10830 10828 10825 10823 10821 10820 10818 10814 10812 10811 10807 10805 10803 10800 10796 10792 10789 10785 10782 10779 10776 10773 10770 10766 10763 10759 10755 10751 10748 10744 10741 10738 10735 10733 10731 10728 10724 10720 10716 10710 10704 10698 10693 10687 10683 10680 10675 10669 10662 10656 10652 10647 10643 10639 10634 10630 10628 10626 10623 10616 10610 10606 10601 10594 10589
10853 10852 10851 10851 10850 10848 10846 10844 10842 10841 10840 10840 10838 10835 10834 10833 10831 10829 10826 10823 10820 10818 10817 10814 10812 10811 10810 10806 10804 10803 10800 10796 10794 10792 10789 10784 10780 10777 10773 10770 10767 10763 10759 10755 10752 10749 10746 10742 10739 10736 10731 10727 10724 10722 10719 10716 10712 10709 10705 10700 10695 10689 10684 10678 10672 10668 10665 10660 10654 10647 10641 10635 10631 10626 10621 10617 10614 10612 10610 10606 10600 10596 10591 10584 10579
10846 10845 10844 10844 10843 10841 10839 10837 10836 10835 10834 10833 10831 10828 10826 10825 10823 10822 10820 10815 10812 10810 10809 10806 10803 10802 10801 10798 10795 10793 10791 10788 10785 10783 10779 10775 10771 10768 10765 10762 10758 10754 10750 10745 10741 10738 10735 10732 10728 10725 10722 10719 10714 10711 10707 10704 10701 10698 10694 10689 10685 10679 10674 10668 10662 10657 10652 10648 10644 10638 10632 10626 10621 10615 10610 10606 10601 10598 10595 10592 10587 10583 10580 10575 10570
10839 10838 10838 10838 10836 10834 10833 10831 10830 10829 10828 10828 10826 10823 10821 10819 10816 10815 10814 10810 10806 10805 10803 10799 10796 10794 10792 10790 10787 10785 10783 10780 10777 10774 10771 10767 10764 10760 10757 10754 10751 10746 10743 10739 10735 10730 10726 10723 10719 10715 10712 10710 10706 10702 10698 10694 10690 10686 10682 10678 10673 10668 10662 10657 10653 10647 10641 10637 10632 10627 10621 10616 10611 10606 10601 10596 10592 10588 10584 10579 10573 10569 10567 10564 10561
10833 10832 10832 10831 10830 10829 10827 10825 10824 10823 10822 10821 10820 10818 10816 10814 10811 10809 10808 10804 10800 10799 10797 10793 10790 10787 10785 10782 10780 10777 10775 10772 10769 10765 10762 10758 10756 10753 10749 10746 10743 10738 10734 10731 10727 10723 10719 10715 10712 10708 10704 10701 10698 10693 10688 10684 10679 10675 10670 10666 10661 10656 10651 10646 10642 10637 10631 10626 10621 10616 10610 10605 10600 10596 10591 10587 10583 10578 10573 10568 10562 10558 10555 10553 10552
10827 10826 10826 10826 10825 10822 10820 10819 10818 10816 10815 10814 10812 10811 10809 10807 10805 10803 10801 10798 10795 10792 10790 10787 10784 10781 10777 10775 10771 10769 10768 10765 10761 10758 10754 10751 10747 10745 10741 10737 10733 10730 10726 10722 10717 10714 10710 10707 10703 10700 10696 10692 10688 10683 10678 10673 10668 10664 10659 10655 10650 10645 10641 10636 10631 10626 10621 10615 10610 10605 10600 10594 10589 10584 10579 10575 10571 10567 10562 10557 10552 10548 10545 10544 10542
10821 10821 10821 10820 10818 10816 10814 10813 10811 10809 10807 10805 10804 10803 10802 10800 10798 10796 10794 10792 10788 10786 10783 10780 10777 10773 10770 10767 10763 10760 10759 10758 10754 10751 10747 10743 10740 10736 10733 10729 10724 10721 10718 10713 10708 10704 10701 10698 10694 10690 10687 10682 10677 10672 10667 10661 10656 10652 10647 10643 10639 10634 10630 10625 10620 10615 10610 10604 10599 10594 10589 10584 10578 10573 10568 10563 10559 10554 10550 10546 10542 10539 10537 10534 10532
10815 10816 10815 10813 10811 10810 10809 10807 10804 10801 10798 10797 10796 10795 10794 10792 10790 10788 10786 10784 10781 10778 10776 10773 10770 10766 10762 10759 10755 10751 10749 10748 10746 10742 10738 10735 10731 10727 10723 10720 10715 10711 10708 10704 10699 10695 10692 10688 10684 10679 10674 10670 10665 10660 10654 10649 10644 10640 10635 10631 10627 10623 10618 10613 10608 10603 10598 10593 10588 10582 10577 10572 10567 10562 10556 10551 10547 10543 10539 10536 10532 10530 10528 10526 10523
10809 10809 10808 10806 10804 10803 10802 10800 10796 10792 10790 10789 10789 10787 10786 10784 10782 10780 10778 10776 10774 10771 10768 10765 10762 10758 10755 10751 10747 10742 10739 10737 10734 10731 10728 10724 10721 10716 10712 10709 10706 10702 10697 10693 10688 10685 10681 10677 10672 10667 10662 10657 10652 10647 10642 10637 10632 10629 10625 10621 10616 10611 10606 10602 10597 10592 10586 10581 10576 10571 10565 10560 10555 10550 10545 10540 10536 10532 10529 10526 10523 10521 10520 10518 10515
10802 10801 10800 10799 10798 10796 10795 10792 10789 10785 10783 10783 10782 10780 10778 10776 10773 10772 10770 10768 10766 10763 10759 10757 10754 10750 10747 10744 10740 10735 10731 10727 10724 10721 10717 10713 10710 10707 10703 10699 10696 10693 10689 10683 10678 10674 10670 10665 10661 10656 10650 10645 10640 10636 10632 10627 10622 10618 10614 10611 10606 10600 10595 10590 10585 10580 10574 10569 10564 10559 10553 10548 10543 10538 10534 10529 10526 10522 10519 10516 10514 10513 10512 10511 10508
10794 10792 10791 10791 10791 10789 10787 10785 10781 10777 10776 10776 10774 10772 10770 10768 10766 10764 10762 10760 10757 10754 10751 10749 10746 10743 10739 10735 10731 10728 10724 10720 10716 10712 10707 10703 10700 10697 10693 10689 10686 10683 10679 10674 10669 10665 10659 10655 10651 10646 10639 10634 10630 10626 10623 10619 10613 10607 10603 10599 10594 10589 10583 10578 10573 10568 10562 10557 10552 10547 10542 10537 10532 10528 10523 10520 10517 10514 10511 10508 10506 10505 10505 10504 10502
10786 10784 10783 10783 10783 10781 10779 10777 10773 10769 10768 10768 10766 10764 10762 10759 10757 10755 10753 10751 10748 10745 10743 10741 10739 10735 10731 10726 10723 10720 10716 10712 10708 10704 10699 10694 10690 10687 10683 10679 10675 10672 10668 10663 10658 10654 10649 10644 10641 10636 10630 10623 10619 10615 10613 10609 10604 10597 10592 10586 10581 10576 10571 10565 10560 10555 10550 10545 10541 10535 10531 10526 10522 10518 10514 10511 10508 10505 10503 10501 10499 10498 10498 10498 10497
10777 10777 10775 10774 10774 10772 10770 10767 10764 10761 10760 10760 10758 10756 10753 10751 10749 10747 10745 10742 10739 10736 10733 10731 10729 10726 10722 10718 10714 10711 10707 10703 10699 10695 10690 10686 10682 10677 10673 10669 10664 10660 10656 10653 10648 10644 10639 10634 10629 10625 10620 10613 10607 10603 10600 10597 10592 10586 10580 10574 10568 10563 10558 10553 10547 10543 10538 10533 10529 10525 10521 10516 10513 10509 10506 10503 10501 10498 10496 10495 10494 10493 10493 10493 10492
10766 10766 10766 10766 10766 10764 10760 10758 10756 10754 10753 10752 10750 10748 10745 10743 10741 10739 10736 10733 10730 10727 10724 10721 10719 10716 10711 10708 10706 10702 10698 10694 10690 10686 10681 10677 10672 10667 10663 10658 10653 10648 10645 10642 10638 10635 10631 10626 10620 10614 10609 10603 10597 10592 10587 10584 10580 10575 10569 10563 10556 10550 10545 10540 10536 10532 10527 10523 10519 10515 10511 10507 10504 10501 10498 10496 10494 10492 10490 10489 10488 10488 10488 10488 10488
10754 10756 10756 10756 10756 10754 10750 10748 10748 10747 10745 10743 10742 10740 10737 10735 10732 10730 10727 10724 10721 10718 10714 10711 10709 10705 10701 10698 10696 10692 10688 10684 10680 10676 10671 10667 10662 10657 10652 10647 10643 10638 10633 10630 10627 10623 10620 10616 10610 10604 10598 10592 10586 10582 10576 10571 10567 10562 10556 10551 10545 10540 10534 10529 10525 10521 10517 10513 10510 10506 10503 10499 10496 10493 10491 10489 10487 10486 10485 10484 10483 10483 10483 10483 10483
10745 10746 10746 10746 10745 10743 10741 10740 10740 10738 10737 10735 10733 10731 10729 10727 10724 10721 10718 10714 10711 10708 10704 10701 10698 10695 10691 10688 10686 10682 10678 10674 10670 10665 10661 10656 10651 10646 10641 10637 10632 10628 10623 10619 10616 10611 10607 10603 10597 10592 10586 10580 10575 10570 10565 10559 10553 10548 10543 10538 10533 10529 10524 10519 10515 10511 10507 10504 10501 10498 10494 10491 10489 10487 10484 10483 10481 10480 10479 10479 10478 10478 10479 10479 10479
10735 10736 10737 10736 10734 10734 10733 10732 10732 10731 10729 10727 10725 10723 10721 10718 10715 10712 10708 10704 10701 10698 10695 10691 10688 10685 10682 10678 10675 10672 10668 10664 10659 10654 10649 10645 10640 10635 10631 10627 10622 10618 10614 10610 10604 10599 10595 10590 10584 10578 10573 10568 10563 10559 10553 10547 10541 10536 10531 10527 10522 10518 10514 10510 10506 10502 10498 10495 10493 10490 10487 10484 10482 10480 10478 10477 10475 10474 10474 10474 10473 10473 10474 10474 10475
10725 10726 10726 10726 10725 10725 10725 10724 10723 10722 10719 10717 10716 10714 10711 10708 10705 10702 10698 10694 10691 10688 10685 10682 10679 10676 10672 10669 10665 10662 10658 10654 10649 10644 10639 10634 10630 10625 10622 10618 10613 10609 10605 10599 10592 10587 10583 10578 10572 10566 10560 10555 10550 10546 10541 10536 10530 10525 10520 10516 10512 10508 10504 10501 10497 10494 10491 10488 10485 10483 10480 10478 10476 10474 10472 10471 10470 10469 10469 10468 10468 10469 10469 10470 10471
10715 10715 10716 10716 10716 10716 10716 10715 10714 10712 10709 10707 10706 10704 10701 10698 10695 10692 10687 10684 10682 10678 10675 10672 10670 10666 10663 10660 10656 10652 10648 10644 10639 10634 10629 10625 10620 10616 10613 10609 10604 10599 10594 10588 10580 10575 10571 10566 10560 10555 10549 10543 10538 10534 10529 10524 10519 10515 10510 10506 10502 10499 10496 10493 10489 10486 10483 10481 10478 10476 10474 10472 10470 10468 10466 10465 10464 10463 10463 10463 10464 10464 10464 10466 10467
10705 10706 10707 10707 10707 10707 10707 10705 10704 10702 10700 10698 10696 10694 10691 10688 10685 10681 10677 10675 10672 10669 10665 10663 10661 10657 10653 10650 10646 10642 10638 10633 10629 10624 10620 10615 10611 10606 10602 10598 10592 10587 10583 10578 10569 10563 10558 10555 10549 10544 10539 10533 10528 10523 10518 10513 10509 10505 10501 10498 10494 10491 10488 10485 10482 10479 10477 10474 10472 10470 10468 10466 10464 10462 10460 10459 10458 10458 10458 10458 10459 10459 10460 10461 10463
10697 10699 10699 10699 10699 10698 10698 10696 10694 10692 10691 10688 10686 10684 10680 10677 10674 10671 10668 10665 10663 10660 10656 10654 10652 10648 10643 10639 10635 10631 10627 10623 10619 10614 10610 10605 10600 10596 10591 10587 10581 10575 10572 10568 10561 10553 10547 10543 10538 10533 10528 10523 10517 10512 10508 10504 10500 10496 10492 10489 10486 10483 10481 10478 10475 10473 10470 10468 10466 10464 10462 10460 10458 10456 10455 10454 10453 10453 10453 10453 10454 10454 10455 10456 10458
10689 10691 10691 10691 10690 10689 10688 10687 10685 10683 10681 10678 10675 10673 10669 10666 10663 10661 10658 10656 10654 10651 10647 10644 10641 10637 10632 10628 10625 10621 10617 10613 10608 10604 10599 10595 10590 10585 10580 10576 10571 10564 10560 10557 10552 10545 10537 10532 10526 10521 10516 10512 10507 10502 10498 10495 10491 10488 10484 10481 10478 10476 10474 10472 10469 10467 10464 10462 10459 10458 10456 10454 10453 10451 10450 10449 10449 10448 10448 10448 10449 10450 10451 10452 10454
10682 10683 10683 10682 10681 10680 10679 10678 10676 10673 10671 10668 10664 10661 10659 10657 10654 10651 10648 10646 10644 10642 10638 10634 10630 10626 10620 10615 10614 10611 10607 10602 10598 10594 10589 10584 10579 10574 10569 10565 10561 10555 10549 10544 10540 10534 10528 10522 10516 10510 10505 10501 10497 10493 10489 10486 10483 10480 10477 10474 10472 10469 10468 10466 10463 10461 10458 10456 10454 10452 10450 10449 10447 10446 10445 10445 10444 10444 10444 10444 10445 10446 10446 10448 10450
10675 10675 10675 10674 10673 10672 10670 10667 10665 10663 10660 10657 10654 10652 10650 10647 10644 10641 10639 10636 10633 10630 10627 10623 10621 10617 10609 10604 10603 10602 10596 10591 10587 10583 10578 10573 10568 10563 10559 10554 10550 10546 10539 10532 10527 10522 10518 10512 10507 10502 10497 10492 10488 10485 10481 10478 10476 10473 10470 10468 10466 10464 10462 10459 10457 10455 10453 10450 10448 10447 10445 10444 10442 10441 10441 10441 10440 10440 10440 10440 10441 10441 10443 10444 10446
10667 10666 10666 10666 10664 10662 10660 10657 10655 10653 10650 10647 10644 10642 10640 10637 10634 10632 10630 10626 10622 10619 10616 10613 10612 10609 10601 10594 10593 10590 10586 10581 10578 10573 10568 10563 10558 10553 10549 10544 10539 10535 10529 10523 10516 10511 10507 10503 10498 10493 10489 10485 10481 10478 10475 10472 10469 10467 10464 10462 10460 10458 10456 10454 10452 10450 10447 10445 10443 10442 10440 10439 10438 10437 10437 10437 10437 10436 10436 10436 10437 10438 10439 10440 10442
10659 10659 10658 10657 10654 10653 10650 10648 10645 10643 10639 10636 10634 10631 10629 10627 10625 10622 10620 10616 10612 10609 10605 10603 10602 10599 10592 10586 10582 10578 10575 10571 10568 10563 10558 10553 10548 10543 10539 10533 10528 10523 10518 10513 10507 10502 10497 10493 10489 10485 10481 10477 10474 10471 10468 10466 10463 10461 10458 10456 10455 10453 10451 10449 10446 10444 10443 10441 10439 10437 10436 10435 10434 10433 10433 10433 10433 10432 10432 10432 10433 10434 10435 10437 10438
10650 10650 10649 10647 10645 10643 10640 10637 10635 10633 10629 10626 10624 10621 10619 10617 10615 10611 10608 10605 10602 10598 10595 10593 10592 10588 10582 10577 10572 10568 10564 10561 10558 10553 10548 10543 10538 10534 10529 10524 10518 10513 10508 10503 10499 10494 10489 10485 10481 10478 10475 10472 10468 10465 10462 10460 10457 10455 10453 10451 10449 10447 10445 10443 10441 10440 10438 10436 10435 10433 10432 10431 10430 10429 10429 10429 10429 10429 10428 10429 10429 10430 10431 10433 10435
10641 10640 10639 10637 10636 10634 10630 10627 10625 10622 10618 10615 10614 10612 10610 10607 10604 10600 10597 10595 10591 10587 10584 10582 10580 10576 10571 10567 10563 10558 10554 10551 10548 10544 10538 10533 10528 10524 10519 10514 10509 10503 10498 10494 10490 10486 10482 10478 10475 10472 10469 10466 10463 10461 10457 10454 10452 10449 10447 10445 10443 10442 10440 10439 10437 10435 10434 10432 10431 10429 10428 10427 10426 10425 10425 10426 10426 10425 10425 10425 10426 10427 10428 10429 10431
10631 10630 10628 10626 10625 10624 10621 10617 10614 10611 10607 10605 10604 10602 10599 10597 10593 10589 10587 10585 10582 10577 10573 10571 10569 10565 10561 10556 10552 10549 10545 10541 10537 10533 10528 10523 10518 10514 10509 10504 10499 10494 10490 10486 10483 10479 10476 10472 10469 10467 10464 10461 10459 10456 10453 10450 10447 10444 10442 10440 10438 10437 10436 10434 10433 10431 10430 10428 10427 10426 10424 10423 10423 10422 10422 10422 10422 10422 10422 10422 10422 10423 10425 10426 10428
10622 10620 10617 10614 10612 10611 10609 10607 10603 10600 10598 10596 10594 10591 10588 10586 10583 10579 10577 10575 10572 10568 10564 10561 10558 10555 10551 10546 10542 10538 10534 10531 10526 10522 10517 10513 10508 10503 10499 10495 10491 10487 10482 10479 10476 10473 10470 10467 10464 10461 10459 10456 10454 10451 10448 10445 10442 10439 10437 10435 10434 10432 10431 10430 10428 10427 10426 10424 10423 10422 10421 10420 10419 10419 10419 10419 10419 10419 10419 10419 10419 10420 10422 10423 10425
10611 10608 10606 10603 10601 10599 10597 10596 10593 10590 10588 10586 10584 10581 10578 10576 10573 10569 10567 10565 10562 10559 10555 10552 10548 10544 10540 10537 10533 10528 10523 10519 10515 10511 10507 10503 10498 10494 10490 10486 10483 10479 10476 10472 10469 10467 10465 10463 10460 10457 10454 10452 10449 10446 10443 10440 10437 10435 10433 10431 10430 10428 10427 10425 10424 10423 10422 10420 10419 10418 10417 10417 10416 10416 10416 10416 10416 10416 10416 10415 10416 10417 10418 10420 10422
10599 10597 10595 10593 10590 10587 10586 10584 10582 10580 10578 10576 10573 10571 10569 10566 10563 10560 10558 10555 10552 10549 10546 10543 10539 10534 10530 10526 10523 10519 10514 10510 10505 10501 10497 10493 10489 10485 10481 10478 10475 10472 10469 10466 10463 10461 10460 10458 10456 10453 10450 10448 10445 10442 10439 10436 10433 10431 10429 10427 10426 10424 10423 10421 10420 10419 10418 10417 10416 10415 10414 10413 10413 10413 10413 10413 10413 10413 10413 10413 10413 10413 10415 10417 10419
10588 10586 10584 10582 10579 10577 10576 10574 10571 10569 10568 10565 10563 10561 10559 10556 10554 10551 10548 10545 10543 10540 10536 10533 10529 10525 10520 10517 10513 10509 10505 10500 10496 10492 10487 10483 10479 10477 10474 10471 10469 10466 10463 10461 10458 10456 10454 10453 10451 10448 10446 10443 10440 10438 10435 10432 10429 10427 10425 10423 10422 10420 10419 10417 10416 10415 10414 10413 10412 10411 10411 10410 10410 10410 10410 10410 10410 10410 10410 10410 10410 10410 10412 10414 10416
10577 10575 10573 10571 10569 10567 10565 10563 10561 10559 10557 10555 10553 10551 10549 10546 10544 10541 10538 10536 10533 10530 10526 10522 10518 10514 10510 10507 10503 10499 10495 10490 10486 10482 10478 10474 10471 10468 10466 10463 10462 10460 10458 10456 10454 10451 10449 10447 10446 10444 10441 10439 10436 10434 10431 10429 10426 10423 10421 10420 10418 10417 10415 10414 10412 10411 10410 10409 10409 10408 10408 10407 10407 10407 10407 10407 10407 10407 10407 10407 10407 10408 10409 10411 10413
10566 10564 10562 10560 10558 10556 10554 10553 10551 10549 10547 10544 10542 10540 10538 10536 10533 10531 10528 10526 10523 10520 10516 10512 10507 10503 10499 10496 10492 10489 10485 10481 10477 10473 10470 10466 10463 10461 10459 10457 10455 10454 10453 10451 10449 10447 10445 10443 10441 10439 10437 10434 10432 10430 10427 10425 10423 10420 10418 10416 10415 10413 10411 10410 10409 10407 10407 10406 10405 10405 10404 10404 10404 10404 10404 10404 10404 10405 10404 10404 10405 10405 10406 10408 10410